Location: Niedergestelen
(46.3129°N, 7.7822°E)
Time: 18:56:28
(UTC+00:00)

Cosmos 2263 - Pass Details

Date: 01 December 2020
Orbit: 833 x 864 km, 70.9° (Epoch: 27 January)

Event Time Altitude Azimuth Distance (km) Brightness Sun altitude
Rises 17:12:20 0° 335° (NNW) 3,393 7.5 -14.7°
Reaches altitude 10° 17:14:49 10° 339° (NNW) 2,453 6.7 -15.1°
Maximum altitude 17:20:23 61° 60° (ENE) 945 4.1 -16.0°
Drops below altitude 10° 17:25:55 10° 140° (SE) 2,438 6.3 -17.0°
Sets 17:28:23 0° 144° (SE) 3,371 7.1 -17.4°
